Orbital Elements at Epoch 2459200.5 (2020-Dec-17.0) TDB
Reference: JPL 29 (heliocentric ecliptic J2000)
Element | Value | Uncertainty (1-sigma) | Units |
e | .2392676494495359 | 2.5036e-08 | |
a | 2.580800388690607 | 7.6779e-09 | au |
q | 1.963298345990157 | 6.2295e-08 | au |
i | 3.860534171819049 | 3.291e-06 | deg |
node | 197.9109838005928 | 5.0374e-05 | deg |
peri | 237.9853100595059 | 5.1049e-05 | deg |
M | 24.16828315883455 | 8.7406e-06 | deg |
tp | 2459098.834558771841 (2020-Sep-06.33455877) | 3.6603e-05 | TDB |
period | 1514.363209070499 4.15 | 6.7579e-06 1.85e-08 | d yr |
n | .2377236833566264 | 1.0609e-09 | deg/d |
Q | 3.198302431391057 | 9.515e-09 | au |
|
| | Orbit Determination Parameters
Additional Information
|